Time,TemperatureF,DewpointF,PressureIn,WindDirection,WindDirectionDegrees,WindSpeedMPH,WindSpeedGustMPH,Humidity,HourlyPrecipIn,Conditions,Clouds,dailyrainin,SoftwareType,DateUTC
2013-05-20 00:06:00,78.4,68.0,29.79,SSE,160,1.0,12.0,71,0.00,,,0.00,weatherlink.com 1.10,2013-05-20 05:06:00,
2013-05-20 00:21:00,78.1,68.0,29.79,South,176,6.0,9.0,72,0.00,,,0.00,weatherlink.com 1.10,2013-05-20 05:21:00,
2013-05-20 00:36:00,77.9,69.0,29.79,SSE,167,3.0,11.0,73,0.00,,,0.00,weatherlink.com 1.10,2013-05-20 05:36:00,
2013-05-20 00:51:00,77.8,69.0,29.78,South,174,4.0,10.0,73,0.00,,,0.00,weatherlink.com 1.10,2013-05-20 05:51:00,
2013-05-20 01:06:00,77.6,69.0,29.78,SE,137,4.0,10.0,74,0.00,,,0.00,weatherlink.com 1.10,2013-05-20 06:06:00,
2013-05-20 01:21:00,77.4,69.0,29.78,South,174,2.0,11.0,75,0.00,,,0.00,weatherlink.com 1.10,2013-05-20 06:21:00,
2013-05-20 01:36:00,77.1,69.0,29.78,SSE,165,9.0,11.0,75,0.00,,,0.00,weatherlink.com 1.10,2013-05-20 06:36:00,
2013-05-20 01:51:00,76.8,69.0,29.78,SSE,164,4.0,10.0,76,0.00,,,0.00,weatherlink.com 1.10,2013-05-20 06:51:00,
2013-05-20 02:06:00,76.4,69.0,29.78,SE,142,6.0,9.0,77,0.00,,,0.00,weatherlink.com 1.10,2013-05-20 07:06:00,
2013-05-20 02:21:00,76.2,69.0,29.78,SSW,193,1.0,9.0,78,0.00,,,0.00,weatherlink.com 1.10,2013-05-20 07:21:00,
2013-05-20 02:36:00,76.0,69.0,29.78,SSW,193,4.0,13.0,79,0.00,,,0.00,weatherlink.com 1.10,2013-05-20 07:36:00,
2013-05-20 02:51:00,75.8,69.0,29.78,South,170,6.0,8.0,80,0.00,,,0.00,weatherlink.com 1.10,2013-05-20 07:51:00,
2013-05-20 03:06:00,75.8,69.0,29.77,SSE,167,7.0,11.0,80,0.00,,,0.00,weatherlink.com 1.10,2013-05-20 08:06:00,
2013-05-20 03:22:00,75.7,70.0,29.78,South,175,3.0,12.0,81,0.00,,,0.00,weatherlink.com 1.10,2013-05-20 08:22:00,
2013-05-20 03:37:00,75.6,69.0,29.77,South,172,2.0,12.0,81,0.00,,,0.00,weatherlink.com 1.10,2013-05-20 08:37:00,
2013-05-20 03:52:00,75.4,70.0,29.77,SSE,155,4.0,12.0,82,0.00,,,0.00,weatherlink.com 1.10,2013-05-20 08:52:00,
2013-05-20 04:07:00,75.3,70.0,29.78,SSW,203,1.0,16.0,82,0.00,,,0.00,weatherlink.com 1.10,2013-05-20 09:07:00,
2013-05-20 04:22:00,75.2,69.0,29.78,SSE,155,6.0,10.0,82,0.00,,,0.00,weatherlink.com 1.10,2013-05-20 09:22:00,
2013-05-20 04:37:00,74.9,69.0,29.79,SE,146,2.0,7.0,83,0.00,,,0.00,weatherlink.com 1.10,2013-05-20 09:37:00,
2013-05-20 04:52:00,74.8,69.0,29.78,SSW,192,2.0,10.0,83,0.00,,,0.00,weatherlink.com 1.10,2013-05-20 09:52:00,
2013-05-20 05:07:00,74.9,69.0,29.79,South,175,5.0,20.0,83,0.00,,,0.00,weatherlink.com 1.10,2013-05-20 10:07:00,
2013-05-20 05:22:00,74.9,69.0,29.81,WSW,258,5.0,10.0,83,0.00,,,0.00,weatherlink.com 1.10,2013-05-20 10:22:00,
2013-05-20 05:37:00,74.9,70.0,29.82,SW,226,4.0,11.0,84,0.00,,,0.00,weatherlink.com 1.10,2013-05-20 10:37:00,
2013-05-20 05:52:00,74.9,70.0,29.83,SW,218,1.0,9.0,84,0.00,,,0.00,weatherlink.com 1.10,2013-05-20 10:52:00,
2013-05-20 06:07:00,74.9,70.0,29.83,SSE,163,4.0,5.0,84,0.00,,,0.00,weatherlink.com 1.10,2013-05-20 11:07:00,
2013-05-20 06:22:00,74.8,70.0,29.83,SW,230,1.0,3.0,84,0.00,,,0.00,weatherlink.com 1.10,2013-05-20 11:22:00,
2013-05-20 06:37:00,74.8,70.0,29.84,SW,230,0.0,3.0,85,0.00,,,0.00,weatherlink.com 1.10,2013-05-20 11:37:00,
2013-05-20 06:52:00,74.8,70.0,29.84,SW,216,4.0,5.0,85,0.00,,,0.00,weatherlink.com 1.10,2013-05-20 11:52:00,
2013-05-20 07:07:00,74.9,70.0,29.84,South,170,0.0,4.0,85,0.00,,,0.00,weatherlink.com 1.10,2013-05-20 12:07:00,
2013-05-20 07:22:00,75.0,70.0,29.84,South,179,1.0,3.0,85,0.00,,,0.00,weatherlink.com 1.10,2013-05-20 12:22:00,
2013-05-20 07:37:00,75.7,71.0,29.83,SSE,168,4.0,6.0,84,0.00,,,0.00,weatherlink.com 1.10,2013-05-20 12:37:00,
2013-05-20 07:52:00,76.2,70.0,29.83,SE,143,5.0,9.0,82,0.00,,,0.00,weatherlink.com 1.10,2013-05-20 12:52:00,
2013-05-20 08:07:00,76.7,71.0,29.84,SSE,163,4.0,9.0,82,0.00,,,0.00,weatherlink.com 1.10,2013-05-20 13:07:00,
2013-05-20 08:22:00,76.6,71.0,29.85,South,182,7.0,11.0,82,0.00,,,0.00,weatherlink.com 1.10,2013-05-20 13:22:00,
2013-05-20 08:37:00,76.3,70.0,29.86,SSW,210,4.0,12.0,82,0.00,,,0.00,weatherlink.com 1.10,2013-05-20 13:37:00,
2013-05-20 08:52:00,76.6,71.0,29.86,SSW,196,7.0,12.0,82,0.00,,,0.00,weatherlink.com 1.10,2013-05-20 13:52:00,
2013-05-20 09:07:00,77.7,71.0,29.85,SSW,213,2.0,8.0,81,0.00,,,0.00,weatherlink.com 1.10,2013-05-20 14:07:00,
2013-05-20 09:22:00,77.8,71.0,29.85,SSE,158,3.0,11.0,80,0.00,,,0.00,weatherlink.com 1.10,2013-05-20 14:22:00,
2013-05-20 09:37:00,78.8,71.0,29.84,SW,221,7.0,11.0,77,0.00,,,0.00,weatherlink.com 1.10,2013-05-20 14:37:00,
2013-05-20 09:52:00,79.4,70.0,29.83,WSW,245,3.0,18.0,72,0.00,,,0.00,weatherlink.com 1.10,2013-05-20 14:52:00,
2013-05-20 10:07:00,79.8,70.0,29.83,SSW,204,2.0,13.0,71,0.00,,,0.00,weatherlink.com 1.10,2013-05-20 15:07:00,
2013-05-20 10:22:00,80.5,70.0,29.83,WSW,246,3.0,16.0,70,0.00,,,0.00,weatherlink.com 1.10,2013-05-20 15:22:00,
2013-05-20 10:37:00,80.2,70.0,29.83,SSE,168,6.0,14.0,71,0.00,,,0.00,weatherlink.com 1.10,2013-05-20 15:37:00,
2013-05-20 10:52:00,79.9,70.0,29.83,South,175,7.0,13.0,72,0.00,,,0.00,weatherlink.com 1.10,2013-05-20 15:52:00,
2013-05-20 11:07:00,80.5,70.0,29.83,South,181,6.0,14.0,71,0.00,,,0.00,weatherlink.com 1.10,2013-05-20 16:07:00,
2013-05-20 11:22:00,80.3,70.0,29.83,South,189,9.0,14.0,71,0.00,,,0.00,weatherlink.com 1.10,2013-05-20 16:22:00,
2013-05-20 11:37:00,79.4,70.0,29.83,SSE,162,8.0,12.0,73,0.00,,,0.00,weatherlink.com 1.10,2013-05-20 16:37:00,
2013-05-20 11:52:00,80.2,70.0,29.83,SSE,149,2.0,14.0,72,0.00,,,0.00,weatherlink.com 1.10,2013-05-20 16:52:00,
2013-05-20 12:07:00,80.0,70.0,29.83,South,170,5.0,12.0,72,0.00,,,0.00,weatherlink.com 1.10,2013-05-20 17:07:00,
2013-05-20 12:22:00,79.4,70.0,29.83,SSW,196,4.0,10.0,74,0.00,,,0.00,weatherlink.com 1.10,2013-05-20 17:22:00,
2013-05-20 12:37:00,78.9,70.0,29.84,SSE,158,4.0,9.0,75,0.00,,,0.00,weatherlink.com 1.10,2013-05-20 17:37:00,
2013-05-20 12:52:00,79.0,71.0,29.84,SSW,192,0.0,7.0,76,0.00,,,0.00,weatherlink.com 1.10,2013-05-20 17:52:00,
2013-05-20 13:07:00,79.0,71.0,29.84,South,170,2.0,7.0,76,0.00,,,0.00,weatherlink.com 1.10,2013-05-20 18:07:00,
2013-05-20 13:22:00,79.0,71.0,29.83,West,259,1.0,7.0,76,0.00,,,0.00,weatherlink.com 1.10,2013-05-20 18:22:00,
2013-05-20 13:37:00,79.5,71.0,29.84,SSW,212,3.0,7.0,75,0.00,,,0.00,weatherlink.com 1.10,2013-05-20 18:37:00,
2013-05-20 13:52:00,81.2,71.0,29.83,West,271,5.0,12.0,71,0.00,,,0.00,weatherlink.com 1.10,2013-05-20 18:52:00,
2013-05-20 14:07:00,80.7,71.0,29.83,NW,324,1.0,12.0,71,0.00,,,0.00,weatherlink.com 1.10,2013-05-20 19:07:00,
2013-05-20 14:22:00,80.7,71.0,29.82,West,262,6.0,10.0,72,0.00,,,0.00,weatherlink.com 1.10,2013-05-20 19:22:00,
2013-05-20 14:37:00,82.0,71.0,29.81,South,182,0.0,9.0,69,0.00,,,0.00,weatherlink.com 1.10,2013-05-20 19:37:00,
2013-05-20 14:52:00,83.1,71.0,29.81,SE,140,3.0,9.0,67,0.00,,,0.00,weatherlink.com 1.10,2013-05-20 19:52:00,
2013-05-20 15:08:00,84.1,71.0,29.80,SSW,198,2.0,10.0,64,0.00,,,0.00,weatherlink.com 1.10,2013-05-20 20:08:00,
2013-05-20 15:23:00,85.0,71.0,29.79,South,174,5.0,11.0,63,0.00,,,0.00,weatherlink.com 1.10,2013-05-20 20:23:00,
2013-05-20 15:38:00,86.1,71.0,29.78,South,169,3.0,12.0,60,0.00,,,0.00,weatherlink.com 1.10,2013-05-20 20:38:00,
2013-05-20 15:53:00,86.6,70.0,29.78,SSW,193,8.0,13.0,57,0.00,,,0.00,weatherlink.com 1.10,2013-05-20 20:53:00,
2013-05-20 16:08:00,87.0,69.0,29.77,South,182,5.0,12.0,55,0.00,,,0.00,weatherlink.com 1.10,2013-05-20 21:08:00,
2013-05-20 16:23:00,87.0,68.0,29.76,ESE,119,9.0,16.0,54,0.00,,,0.00,weatherlink.com 1.10,2013-05-20 21:23:00,
2013-05-20 16:38:00,87.2,70.0,29.76,South,176,8.0,18.0,56,0.00,,,0.00,weatherlink.com 1.10,2013-05-20 21:38:00,
2013-05-20 16:53:00,86.8,70.0,29.75,WSW,245,11.0,14.0,58,0.00,,,0.00,weatherlink.com 1.10,2013-05-20 21:53:00,
2013-05-20 17:08:00,86.9,71.0,29.75,South,191,7.0,14.0,59,0.00,,,0.00,weatherlink.com 1.10,2013-05-20 22:08:00,
2013-05-20 17:23:00,87.2,71.0,29.74,SE,133,8.0,15.0,59,0.00,,,0.00,weatherlink.com 1.10,2013-05-20 22:23:00,
2013-05-20 17:38:00,86.6,71.0,29.73,SE,130,2.0,12.0,60,0.00,,,0.00,weatherlink.com 1.10,2013-05-20 22:38:00,
2013-05-20 17:53:00,86.2,71.0,29.73,SSE,164,6.0,16.0,60,0.00,,,0.00,weatherlink.com 1.10,2013-05-20 22:53:00,
2013-05-20 18:08:00,85.4,70.0,29.72,South,172,6.0,21.0,60,0.00,,,0.00,weatherlink.com 1.10,2013-05-20 23:08:00,
2013-05-20 18:23:00,85.4,70.0,29.72,South,172,6.0,14.0,60,0.00,,,0.00,weatherlink.com 1.10,2013-05-20 23:23:00,
2013-05-20 18:38:00,85.3,69.0,29.71,SE,139,5.0,16.0,59,0.00,,,0.00,weatherlink.com 1.10,2013-05-20 23:38:00,
2013-05-20 18:53:00,85.2,69.0,29.71,South,189,6.0,12.0,59,0.00,,,0.00,weatherlink.com 1.10,2013-05-20 23:53:00,
2013-05-20 19:08:00,85.0,69.0,29.71,ESE,120,3.0,9.0,59,0.00,,,0.00,weatherlink.com 1.10,2013-05-21 00:08:00,
2013-05-20 19:23:00,84.4,69.0,29.72,South,184,3.0,8.0,60,0.00,,,0.00,weatherlink.com 1.10,2013-05-21 00:23:00,
2013-05-20 19:38:00,83.8,69.0,29.71,South,171,3.0,11.0,61,0.00,,,0.00,weatherlink.com 1.10,2013-05-21 00:38:00,
2013-05-20 19:53:00,83.3,69.0,29.72,ESE,122,2.0,12.0,62,0.00,,,0.00,weatherlink.com 1.10,2013-05-21 00:53:00,
2013-05-20 20:08:00,82.9,69.0,29.72,South,175,2.0,8.0,63,0.00,,,0.00,weatherlink.com 1.10,2013-05-21 01:08:00,
2013-05-20 20:23:00,82.5,69.0,29.72,SSE,147,3.0,8.0,64,0.00,,,0.00,weatherlink.com 1.10,2013-05-21 01:23:00,
2013-05-20 20:38:00,82.2,69.0,29.73,ESE,120,3.0,12.0,65,0.00,,,0.00,weatherlink.com 1.10,2013-05-21 01:38:00,
2013-05-20 20:53:00,82.0,70.0,29.72,SSE,161,7.0,11.0,66,0.00,,,0.00,weatherlink.com 1.10,2013-05-21 01:53:00,
2013-05-20 21:08:00,81.6,70.0,29.72,SSE,168,3.0,8.0,67,0.00,,,0.00,weatherlink.com 1.10,2013-05-21 02:08:00,
2013-05-20 21:23:00,81.4,69.0,29.72,SSE,166,6.0,14.0,67,0.00,,,0.00,weatherlink.com 1.10,2013-05-21 02:23:00,
2013-05-20 21:38:00,81.2,70.0,29.72,South,179,2.0,15.0,68,0.00,,,0.00,weatherlink.com 1.10,2013-05-21 02:38:00,
2013-05-20 21:53:00,81.1,70.0,29.72,SE,141,8.0,18.0,68,0.00,,,0.00,weatherlink.com 1.10,2013-05-21 02:53:00,
2013-05-20 22:08:00,80.9,69.0,29.73,SSE,168,11.0,17.0,68,0.00,,,0.00,weatherlink.com 1.10,2013-05-21 03:08:00,
2013-05-20 22:23:00,80.8,70.0,29.74,South,171,8.0,13.0,69,0.00,,,0.00,weatherlink.com 1.10,2013-05-21 03:23:00,
2013-05-20 22:38:00,80.7,70.0,29.74,South,185,6.0,12.0,69,0.00,,,0.00,weatherlink.com 1.10,2013-05-21 03:38:00,
2013-05-20 22:53:00,80.7,70.0,29.75,South,179,5.0,16.0,69,0.00,,,0.00,weatherlink.com 1.10,2013-05-21 03:53:00,
2013-05-20 23:08:00,80.6,70.0,29.77,South,180,7.0,13.0,69,0.00,,,0.00,weatherlink.com 1.10,2013-05-21 04:08:00,
2013-05-20 23:23:00,80.7,70.0,29.78,SE,145,0.0,12.0,69,0.00,,,0.00,weatherlink.com 1.10,2013-05-21 04:23:00,
2013-05-20 23:38:00,80.7,70.0,29.79,WNW,289,1.0,10.0,69,0.00,,,0.00,weatherlink.com 1.10,2013-05-21 04:38:00,
2013-05-20 23:53:00,80.7,70.0,29.78,SE,141,2.0,12.0,69,0.00,,,0.00,weatherlink.com 1.10,2013-05-21 04:53:00,